Lapse_Rate
4.5 4.2 4.3 4.2 3.9 3.8 3.6 3.7 3.8 3.9 3.9 3.6 3.9 3.6 3.4 3.5 3.5 3.2 3.2 2.8 2.4 2.3 2.1 1.3 1.1 0.8 0.3 2.9 3.6 6.6 6.4 5.8 4.8 5.6 6.3 5.8 5.8 5.2 6.5 6.1 5.5 6.5 6.4 5.7 4.7 5.3 5.9
4.5 4.6 4.4 4.4 4.2 4.2 4.2 4.2 4.2 4.2 4.1 3.9 3.4 3.5 3.7 3.7 3.8 3.7 2.9 2.6 2.6 2.3 2.0 1.8 1.3 1.7 3.9 6.0 5.8 6.8 5.9 6.1 7.1 6.6 6.0 5.9 6.1 6.2 5.8 6.0 6.3 6.1 5.9 5.3 5.3 4.7 5.8
4.0 4.0 4.3 4.3 4.1 4.2 4.5 3.9 3.6 3.5 3.6 3.3 3.0 3.1 3.7 3.6 3.4 3.7 3.7 2.4 3.0 2.3 1.9 1.7 2.1 2.7 4.3 2.3 4.0 4.7 4.2 7.0 7.6 7.7 7.1 6.6 6.8 6.3 5.4 6.4 5.9 5.8 6.5 6.4 5.9 5.2 6.3
3.5 3.6 3.1 3.5 3.5 2.8 2.4 2.7 2.8 2.8 2.8 2.9 3.0 2.9 3.0 2.9 2.7 3.1 3.3 2.6 2.1 2.5 1.8 1.2 2.1 2.4 3.5 3.4 4.8 3.3 4.6 6.5 7.2 7.0 7.5 6.9 6.9 6.7 6.4 5.2 5.4 6.5 6.5 6.5 6.5 6.4 5.4
4.3 3.8 3.1 2.0 2.1 2.8 3.1 3.1 3.0 2.9 2.9 2.7 2.6 2.7 2.9 3.0 2.2 2.7 2.4 2.1 2.0 1.4 1.0 1.7 2.0 4.2 4.1 4.9 5.5 6.5 5.9 6.8 7.2 6.9 7.2 7.9 7.1 6.0 5.8 6.5 6.5 6.5 6.5 6.5 6.5 6.3 6.5
4.8 4.7 4.6 4.2 3.6 3.4 3.8 4.2 4.4 3.6 4.0 4.5 4.3 3.3 3.0 3.5 3.1 2.8 2.3 2.5 2.2 0.4 2.3 4.1 5.2 5.7 4.0 6.0 6.9 7.5 7.5 7.8 7.4 6.2 6.7 6.4 4.7 6.5 6.5 6.5 6.5 6.5 6.5 6.5 6.5 6.5 6.5
5.0 4.9 4.7 4.6 4.8 4.8 4.5 4.6 3.9 3.9 3.5 3.4 3.6 3.6 3.0 3.6 3.1 2.6 1.8 1.7 3.5 4.2 4.2 6.1 6.1 5.1 6.0 6.9 7.5 7.2 7.3 7.2 7.2 6.4 6.5 5.5 6.5 6.5 6.5 6.5 6.5 6.5 6.5 6.5 6.5 6.5 6.5
6.0 5.4 4.8 4.6 4.9 4.5 4.2 4.2 4.4 4.8 4.3 4.1 3.4 3.3 3.2 3.3 3.2 2.8 2.9 4.0 6.3 6.6 5.5 6.6 6.2 6.8 6.5 5.8 7.1 5.8 7.5 6.6 6.1 6.5 6.4 6.5 6.5 6.5 6.5 6.5 6.5 6.5 6.5 6.5 6.5 6.5 6.5
6.2 6.1 6.1 5.4 5.5 5.4 5.3 5.3 5.9 5.5 4.9 4.9 4.0 2.9 3.0 3.4 3.3 2.5 3.0 4.6 6.7 5.5 5.4 6.5 7.1 6.6 5.6 5.7 6.6 6.0 7.2 6.2 6.3 6.5 6.5 6.5 6.5 6.5 6.5 6.5 6.5 6.5 6.5 6.5 6.5 6.5 6.5
6.4 6.3 6.2 6.1 6.0 6.0 5.7 5.6 6.0 5.8 5.4 5.6 5.4 4.9 4.0 3.9 4.5 3.5 3.8 5.0 5.9 5.0 6.5 6.5 6.4 6.3 7.4 7.2 6.2 6.4 6.4 5.8 6.4 6.5 6.5 6.5 6.3 6.5 6.5 6.5 6.5 6.5 6.5 6.5 6.5 6.5 6.5
6.0 6.2 6.2 6.2 6.2 6.4 6.3 6.3 6.2 6.3 6.0 5.8 5.7 5.2 5.1 4.1 2.5 3.8 5.6 4.9 6.3 4.4 6.5 6.5 6.5 7.0 6.7 6.1 6.7 6.8 7.1 5.4 6.5 6.5 6.5 6.5 6.5 6.5 6.5 6.5 6.5 6.5 6.5 6.5 6.5 6.5 6.5
5.6 5.8 6.0 6.1 6.1 6.3 6.3 6.3 6.3 6.5 6.4 6.0 5.9 6.1 5.4 4.3 2.6 4.1 4.8 4.5 5.2 6.5 6.5 6.5 6.4 6.5 6.5 6.5 6.5 6.7 6.5 6.9 6.3 6.5 6.5 6.5 5.8 6.5 6.5 6.5 6.5 6.5 6.5 6.5 6.5 6.5 6.5
5.8 5.6 5.6 5.7 5.9 6.1 6.2 6.3 6.4 6.5 6.6 6.4 6.5 6.4 6.1 6.2 4.6 5.1 4.7 4.8 6.5 6.5 6.5 6.5 6.5 6.5 6.5 6.5 6.5 6.5 6.5 6.5 6.5 6.5 6.5 6.5 6.5 6.4 6.2 6.5 6.5 6.5 6.5 6.5 6.5 6.5 6.5
6.3 6.0 5.8 5.7 5.6 6.0 6.3 6.3 6.3 6.4 6.5 6.7 7.3 6.7 5.7 6.2 6.3 4.7 4.2 6.2 6.5 6.5 6.5 6.5 6.5 6.5 6.5 6.5 6.5 6.5 6.5 6.5 6.5 6.5 6.5 6.5 6.5 6.5 6.5 6.5 6.5 6.5 6.5 6.5 6.5 6.5 6.5
7.2 6.7 6.2 5.8 5.6 5.6 6.1 6.4 6.5 6.5 6.5 6.9 6.9 4.9 4.9 4.8 6.8 4.2 4.2 6.5 6.5 6.5 6.5 6.5 6.5 6.5 6.5 6.5 6.5 6.5 6.5 6.5 6.5 6.5 6.5 6.5 6.5 6.5 6.5 6.5 6.5 6.5 6.5 6.5 6.5 6.5 6.5
8.3 7.7 6.9 6.5 6.0 5.6 5.5 6.0 6.6 6.8 6.8 6.4 4.9 4.6 4.6 6.6 6.5 4.9 6.2 6.5 6.5 6.5 6.5 6.5 6.5 6.5 6.5 6.5 6.5 6.5 6.5 6.5 6.5 6.5 6.0 6.5 6.5 6.5 6.5 6.3 6.5 6.5 6.5 6.5 6.5 6.5 6.5
8.4 8.0 7.6 6.9 6.4 6.1 5.8 5.8 6.1 6.5 7.0 6.9 6.0 5.5 4.4 6.9 5.4 5.8 6.5 6.5 6.5 6.5 6.3 6.5 6.5 6.5 6.5 6.5 6.5 6.5 6.5 6.5 6.5 6.5 6.3 6.5 6.5 6.5 6.5 6.5 6.5 6.5 6.5 6.5 6.5 6.5 6.5
8.4 8.3 7.9 7.6 7.2 6.4 6.2 6.0 6.1 6.4 6.2 5.7 6.5 6.5 4.0 5.5 6.0 5.6 6.5 6.5 6.4 6.4 6.3 6.5 6.5 6.5 6.5 6.5 6.5 6.5 6.5 6.5 5.8 6.5 6.5 6.5 6.5 6.5 6.5 6.5 6.5 6.5 6.5 6.5 6.5 6.5 6.5
8.8 8.1 7.8 7.6 7.4 7.0 6.5 6.3 6.0 6.4 6.2 5.4 6.7 5.6 5.1 5.6 6.5 6.5 6.4 6.5 6.5 6.5 6.5 6.5 6.5 6.5 6.5 6.5 6.5 6.5 6.5 6.5 6.3 6.4 6.5 6.5 6.5 6.5 6.5 6.5 6.5 6.5 6.5 6.5 6.5 6.5 6.5
9.2 8.6 7.9 7.7 7.7 7.5 7.1 6.6 6.6 6.5 5.9 5.6 5.8 6.5 5.9 6.4 5.6 6.5 6.5 6.5 6.5 6.5 6.5 6.4 6.5 6.5 6.5 6.5 6.5 6.5 6.5 6.5 6.1 6.2 5.3 5.3 6.5 6.5 6.5 6.5 6.5 6.5 6.5 6.5 6.5 6.5 6.5
9.0 8.8 8.3 7.8 7.5 8.1 7.8 7.3 6.7 6.4 5.9 5.3 5.9 6.5 6.6 6.5 6.5 6.5 6.5 6.5 6.5 6.5 6.2 5.5 6.5 6.5 6.5 6.5 6.5 6.5 6.5 6.5 6.3 5.6 6.0 6.5 6.5 6.5 6.5 6.5 6.5 6.5 6.5 6.5 6.5 6.5 6.5
8.6 8.5 8.1 7.9 7.8 8.1 8.2 7.5 7.0 6.7 6.5 5.6 6.0 6.4 6.8 6.7 6.5 6.5 6.5 6.5 6.5 6.5 6.5 6.5 6.5 6.5 6.5 6.5 6.5 6.5 6.5 6.5 6.5 6.5 6.5 6.5 6.5 6.5 6.5 6.5 6.5 6.5 6.5 6.5 6.5 6.5 6.5
8.5 8.7 8.4 8.0 7.7 7.7 8.1 7.9 7.1 7.0 6.8 5.5 6.2 6.2 6.7 6.4 6.5 6.5 6.5 6.5 6.5 6.5 6.3 6.4 6.5 6.5 6.5 6.5 6.0 5.8 5.9 5.6 6.4 6.5 6.5 6.5 6.5 6.5 6.5 6.5 6.5 6.5 6.5 6.5 6.5 6.5 6.5
8.2 8.0 7.7 7.5 7.6 7.8 8.1 7.9 7.4 6.7 6.9 5.7 6.1 6.6 6.3 6.5 6.5 6.5 6.5 6.6 6.5 6.5 6.5 6.6 6.2 6.5 6.5 6.2 6.2 6.3 6.3 6.2 6.1 6.3 6.1 6.5 6.5 6.5 6.5 6.5 6.5 6.5 6.5 6.5 6.5 6.5 6.5
8.2 8.0 7.8 7.6 7.6 8.0 8.1 7.7 7.3 6.7 6.7 5.8 6.1 6.5 6.3 6.5 6.7 6.5 6.5 6.5 6.5 6.6 6.4 6.6 6.4 6.6 4.7 5.0 6.5 6.5 6.5 6.5 6.5 6.5 6.5 6.5 6.5 6.5 6.5 6.5 6.5 6.5 6.5 6.5 6.5 6.5 6.5
8.4 8.0 7.7 7.6 8.2 8.2 8.0 7.6 7.2 6.6 6.8 6.6 6.0 6.0 6.4 6.9 6.5 7.1 6.5 6.6 6.5 6.5 6.5 6.0 6.3 3.8 4.0 6.4 6.5 6.5 6.5 6.5 6.5 6.5 6.5 6.5 6.5 6.5 6.5 6.5 6.5 6.5 6.5 6.3 6.5 6.5 6.5
8.7 8.1 7.9 7.8 7.8 7.9 7.6 7.4 7.2 6.6 7.1 6.5 6.5 6.2 6.7 6.6 5.5 6.9 6.3 6.2 5.5 5.9 6.5 6.1 5.8 5.9 4.1 6.5 6.5 6.5 6.5 6.5 6.5 6.5 6.5 6.5 6.5 6.5 6.5 6.5 6.5 6.5 6.3 6.3 6.5 6.5 6.0
8.1 8.0 7.9 7.8 7.7 7.6 7.6 7.4 7.1 6.7 6.8 6.6 6.8 6.5 6.5 6.7 5.9 7.3 7.0 6.2 5.1 5.5 6.5 5.2 5.9 5.6 6.2 6.5 6.5 6.5 6.5 6.5 6.5 6.5 6.5 6.5 6.5 6.5 6.5 6.5 6.5 6.2 6.4 6.5 6.1 4.7 4.7
8.0 8.0 8.0 7.9 7.7 7.6 7.6 7.4 7.1 6.9 6.9 7.1 6.6 6.5 6.4 6.6 6.5 6.9 6.8 6.8 6.8 6.0 4.2 4.6 5.0 5.9 5.4 6.5 6.5 6.5 6.5 6.5 6.5 6.5 6.5 6.5 6.5 6.5 6.5 6.5 6.2 6.0 5.9 6.1 4.8 5.1 4.7
Wind_Speed
20 19 20 19 19 18 18 17 15 15 15 15 13 13 14 14 15 14 18 18 18 20 22 22 24 31 9 5 8 5 6 7 5 3 3 6 5 5 6 5 6 2 3 2 4 3 3
21 22 22 22 20 19 18 17 15 15 16 16 17 14 16 15 16 15 15 18 19 19 21 20 19 23 4 4 4 3 6 8 3 3 6 6 5 4 5 5 3 3 5 7 4 7 4
12 21 21 22 21 18 14 8 7 9 12 12 11 13 15 14 14 14 15 16 20 21 18 17 17 8 4 16 6 15 9 3 3 1 4 3 3 5 6 7 4 6 6 8 7 6 5
4 1 5 16 15 17 14 9 8 8 7 6 10 12 9 5 8 10 16 17 21 25 20 12 12 2 8 8 19 11 6 6 6 4 4 5 2 2 3 5 8 5 3 2 5 2 6
10 14 17 19 20 16 10 5 5 6 6 5 7 8 9 8 7 12 15 22 25 22 15 14 1 1 10 14 6 8 7 4 4 5 4 3 3 3 3 1 4 3 3 4 9 4 5
9 8 10 12 11 6 2 5 4 4 4 4 5 6 7 10 9 12 18 24 24 5 4 5 2 3 7 5 5 1 1 1 1 5 2 1 2 2 2 3 4 4 3 5 5 5 4
11 9 8 9 7 4 4 4 4 4 2 2 3 3 6 8 9 11 9 5 5 4 3 5 3 6 13 6 5 3 2 2 1 2 3 3 1 7 8 8 8 8 6 7 4 5 3
11 10 9 10 8 8 6 6 7 6 3 4 2 2 1 3 7 8 3 2 3 4 9 9 16 19 21 11 9 18 3 3 5 6 2 4 8 11 7 9 7 7 6 6 5 3 1
11 10 10 10 8 7 7 7 8 8 7 6 5 4 2 7 4 4 1 5 9 7 4 7 14 9 9 13 14 20 5 2 5 4 6 8 7 5 6 8 11 5 4 3 3 4 1
10 10 10 10 9 8 9 9 9 9 9 10 7 5 3 1 4 4 3 8 13 5 4 6 5 6 5 5 5 12 9 9 3 8 7 8 9 11 8 6 2 2 2 2 3 5 2
7 8 8 9 10 8 8 8 8 9 11 11 9 6 1 2 2 1 5 17 4 4 4 4 4 2 2 7 1 2 2 5 15 8 2 8 4 2 1 4 2 5 3 3 1 2 2
5 4 7 8 10 11 9 10 10 8 8 10 10 5 4 3 1 6 17 16 4 5 8 5 2 2 3 1 1 2 1 1 4 9 9 7 4 3 5 1 1 2 4 6 4 3 2
5 5 4 4 8 10 11 12 11 9 8 10 12 9 4 2 3 12 13 2 4 4 5 4 3 3 4 5 3 4 4 3 5 4 6 3 10 9 5 5 3 2 5 3 3 1 5
4 3 4 3 2 10 11 13 14 11 11 11 11 7 2 3 7 12 3 4 6 6 10 7 5 2 6 7 6 7 4 3 6 3 2 6 5 3 4 10 8 7 8 5 6 3 4
3 2 3 3 5 2 9 13 15 14 15 12 6 1 2 4 11 3 4 3 7 6 5 5 9 7 6 5 4 6 8 7 6 9 6 3 5 3 3 3 9 4 4 6 3 1 1
3 2 1 0 2 5 2 10 14 17 16 17 3 2 3 9 7 2 2 13 6 4 4 3 2 6 6 6 8 7 6 4 4 5 5 4 2 3 4 5 3 7 4 1 1 2 4
2 1 2 1 1 2 6 2 11 15 16 17 3 1 4 17 4 1 6 7 9 12 7 5 2 4 4 4 2 1 4 2 2 4 4 2 3 5 3 2 3 4 2 0 3 5 4
5 4 3 4 2 1 3 6 3 15 19 7 2 1 2 6 4 3 12 5 5 11 5 6 3 6 4 3 1 3 4 2 5 1 4 1 3 2 6 4 3 5 6 5 3 4 3
9 8 7 7 7 6 4 4 4 7 22 5 1 3 1 4 7 8 7 11 8 5 6 4 4 4 2 4 1 4 1 1 2 3 3 1 1 2 6 5 5 2 3 4 2 1 5
10 9 8 9 9 9 8 6 6 6 21 5 2 2 2 5 3 6 3 11 6 8 18 11 4 1 1 3 4 3 2 1 3 3 4 6 3 5 6 3 1 7 11 3 2 2 3
9 9 9 10 10 11 11 9 7 6 21 4 3 4 3 3 7 8 3 4 16 8 8 9 5 5 5 4 2 4 4 4 3 8 5 5 6 5 4 5 6 13 16 17 12 8 6
12 13 13 12 12 13 14 13 8 8 16 3 4 3 3 2 4 12 12 4 16 11 9 6 6 7 6 6 5 2 3 2 2 2 3 2 4 4 5 5 10 18 15 16 18 18 13
12 12 12 15 15 16 16 15 12 11 15 2 2 2 1 3 5 8 11 17 9 11 8 4 3 5 3 8 6 5 3 4 4 3 1 1 3 2 4 4 6 10 8 16 17 11 8
15 16 16 18 19 18 18 18 15 16 14 2 3 2 3 2 4 11 8 14 19 16 7 5 3 5 6 5 2 3 1 5 5 5 5 4 4 2 3 2 11 5 5 11 8 8 10
17 18 20 23 22 20 19 19 18 16 16 5 2 3 3 3 6 9 16 11 14 15 8 6 7 16 6 3 3 3 4 3 5 10 13 14 5 2 2 5 12 12 13 4 6 7 3
18 19 20 20 21 21 21 21 18 13 17 5 3 2 3 2 7 8 9 13 6 5 3 5 1 5 6 2 2 4 3 3 4 4 4 9 9 5 3 3 4 6 3 4 4 4 3
18 19 20 20 21 21 21 21 20 15 15 6 3 7 2 2 3 1 4 7 5 3 3 4 7 2 5 2 2 2 3 2 4 4 3 3 2 11 8 6 6 8 10 3 2 6 3
20 21 20 21 21 22 21 22 18 16 14 7 2 14 5 3 4 4 4 4 1 3 3 3 3 2 1 3 3 4 3 4 4 9 4 6 6 4 6 6 8 4 1 5 5 4 7
22 21 20 22 21 22 22 23 18 16 14 17 5 11 11 3 3 4 5 4 2 3 5 1 5 4 4 3 3 2 3 3 4 3 2 3 5 4 7 6 3 1 4 4 4 5 6
Wind_Direction
233 229 232 231 232 235 240 243 246 251 259 264 265 275 281 292 298 303 311 316 321 324 326 336 340 337 351 349 258 259 246 279 313 349 330 331 358 348 340 317 323 104 314 306 303 296 298
234 235 232 233 233 236 237 244 244 255 263 266 271 272 279 283 289 299 305 311 313 316 320 329 344 341 342 301 285 332 308 309 281 9 342 14 342 293 283 302 312 286 304 296 290 278 223
241 238 239 235 234 233 244 243 246 261 277 284 291 286 286 290 295 300 304 307 306 308 313 324 336 347 280 248 288 304 296 239 248 259 310 304 321 28 331 314 314 308 319 321 263 242 222
82 167 164 234 228 136 96 93 96 98 90 60 52 50 46 6 348 328 314 308 306 303 305 314 317 333 251 272 290 291 267 298 279 271 244 270 79 304 194 299 336 335 7 316 289 157 247
103 99 95 98 116 107 88 112 117 114 96 61 40 31 9 359 351 330 318 307 295 287 293 289 50 134 267 304 271 265 191 245 307 280 211 252 60 225 321 179 348 336 245 242 310 178 256
155 134 124 135 131 106 141 155 141 147 108 58 27 21 22 343 356 346 324 304 282 325 304 191 241 19 268 300 287 303 310 334 349 342 355 152 51 303 5 89 225 234 263 266 229 295 61
190 181 164 170 182 211 170 190 151 172 169 186 98 47 29 359 357 1 351 351 14 1 80 248 214 246 292 295 306 271 274 345 313 4 208 272 157 231 231 212 243 276 270 241 265 280 29
210 204 187 183 193 185 183 179 195 206 215 227 215 94 59 358 346 10 41 39 221 209 298 236 251 252 254 264 298 289 7 196 174 227 255 309 242 246 244 267 229 249 266 284 268 39 307
215 208 203 197 200 196 199 193 206 205 186 219 166 128 21 328 12 29 106 246 288 18 257 271 237 238 231 208 224 256 186 207 217 213 232 223 253 296 252 278 271 238 229 291 283 331 92
214 212 215 210 207 207 209 214 210 208 196 209 198 175 137 50 27 327 238 304 260 156 322 273 235 254 192 191 277 224 198 177 229 235 248 251 243 243 266 224 165 249 1 116 34 58 261
205 208 213 212 214 213 210 212 208 198 198 197 184 167 125 80 39 310 314 316 235 69 311 234 214 262 43 166 4 60 129 170 217 218 156 243 293 303 288 241 221 207 106 71 23 46 95
112 167 205 219 222 221 216 210 200 194 195 187 181 181 149 91 44 257 310 300 62 55 252 294 187 188 115 204 88 353 43 97 186 217 245 231 287 281 223 202 242 159 59 27 20 81 328
97 98 113 196 223 221 218 209 198 193 186 195 189 181 176 76 215 328 321 35 59 200 306 216 211 190 200 200 237 166 198 201 186 145 237 336 266 238 196 243 323 130 67 354 322 335 226
108 84 65 59 24 222 216 204 195 190 185 185 186 178 252 230 267 336 40 54 199 219 244 295 326 264 213 173 235 194 190 221 252 193 167 185 312 181 204 196 190 177 151 170 230 215 247
165 130 67 37 30 10 218 207 197 192 188 185 171 23 314 247 257 350 97 189 215 199 256 335 336 267 215 226 192 179 198 202 225 186 191 213 244 325 51 155 146 199 157 200 202 273 46
211 177 93 216 26 23 344 217 208 198 189 166 141 137 236 196 187 67 121 228 227 250 342 25 228 291 207 233 181 167 196 210 198 197 179 214 235 32 14 6 0 155 168 133 11 240 244
205 269 180 41 156 52 32 317 214 200 181 165 98 71 263 161 98 137 209 229 242 265 299 231 227 288 296 325 166 330 217 254 188 147 115 108 117 288 79 169 198 337 297 246 173 153 215
223 238 249 189 254 243 350 4 326 196 161 124 144 190 287 132 159 207 225 207 250 279 266 253 241 234 225 13 104 226 260 90 6 45 109 238 139 206 249 245 217 201 211 189 142 268 237
217 227 237 244 232 242 245 289 340 222 156 120 185 221 137 132 203 215 227 237 266 293 249 221 248 205 235 159 21 309 42 272 75 57 134 333 29 12 335 336 19 1 73 91 236 128 206
214 220 235 242 249 249 243 257 285 314 169 104 125 222 261 198 197 197 184 236 239 233 257 272 276 60 301 215 154 222 293 89 85 101 169 91 150 184 208 216 263 289 283 305 183 175 263
231 236 235 240 248 249 236 249 251 262 184 114 168 203 238 213 210 212 201 250 226 239 230 186 218 203 196 277 149 191 248 296 141 179 155 129 223 228 195 223 265 266 278 295 276 236 211
239 241 239 237 239 240 235 236 240 227 195 144 156 186 176 217 203 192 234 218 254 260 244 232 226 200 200 211 213 197 36 36 263 46 147 192 238 217 272 267 260 271 274 271 262 270 258
253 251 245 244 243 238 235 236 226 222 208 135 158 257 230 214 178 197 220 225 254 252 235 283 295 262 207 245 258 205 178 161 178 121 115 120 179 127 255 228 314 290 218 244 252 250 237
251 251 253 255 247 240 232 233 224 232 220 163 177 160 186 256 235 219 220 214 228 255 239 215 360 337 320 131 82 54 221 237 228 236 178 178 146 134 227 25 267 256 267 261 253 246 261
249 250 251 250 240 232 229 231 223 230 224 234 191 175 166 241 219 242 217 222 234 238 254 187 178 230 164 31 66 18 336 327 237 221 216 203 161 178 198 227 288 303 282 238 194 265 287
245 247 251 244 229 229 226 226 225 229 233 229 210 138 149 219 211 255 220 224 218 217 222 208 147 147 88 87 93 164 229 261 269 271 250 188 198 169 161 229 244 239 282 360 126 268 304
247 249 247 239 229 226 220 221 226 228 237 205 254 183 171 208 266 115 255 224 180 182 232 193 177 131 62 119 112 161 230 262 255 245 184 141 160 203 216 236 273 252 271 307 173 238 249
247 246 242 235 228 221 215 215 224 227 240 212 218 193 180 221 266 226 278 255 123 177 193 245 76 359 83 107 144 216 212 230 231 241 227 174 172 196 203 218 258 231 290 180 227 246 239
243 244 239 230 224 220 217 215 222 228 237 226 222 191 194 249 242 290 221 254 194 181 176 279 167 160 166 127 191 177 227 255 212 260 250 194 198 181 190 204 253 354 190 254 222 280 284